Weather History for Lynchburg, VA

Change the Weather History Date:

Tuesday, March 18, 2014

  Actual Average Record
Temperature  
Mean Temperature 36 °F 46 °F  
Max Temperature 42 °F 59 °F 85 °F (1927)
Min Temperature 30 °F 34 °F 15 °F (1967)
Degree Days  
Heating Degree Days 29 19  
Month to date heating degree days 420 383  
Since 1 July heating degree days 3934 3807  
Cooling Degree Days 0 0  
Month to date cooling degree days 0 0  
Year to date cooling degree days 0 0  
Moisture  
Dew Point 29 °F    
Average Humidity 78    
Maximum Humidity 89    
Minimum Humidity 67    
Precipitation  
Precipitation 0.05 in 0.11 in 1.24 in (1983)
Month to date precipitation 1.72 2.01  
Year to date precipitation 8.80 8.08  
Snow  
Snow T in - - ()
Month to date snowfall 3.4  
Since 1 July snowfall 15.4  
Snow Depth 0.00 in    
Sea Level Pressure  
Sea Level Pressure 30.10 in    
Wind  
Wind Speed 10 mph (NNE)    
Max Wind Speed 20 mph    
Max Gust Speed 24 mph    
Visibility 7 miles    
Events Rain , Snow    
T = Trace of Precipitation, MM = Missing Value Source: NWS Daily Summary

Daily Weather History Graph

Daily Weather History Graph

Search for Another Location

Airport:

Trip Planner

Search our weather history database for the weather conditions in past years. The results will help you decide how hot, cold, wet, or windy it might be!

Date:

Astronomy

Mar. 18, 2014 Rise Set
Actual Time 7:23 AM EDT 7:26 PM EDT
Civil Twilight 6:57 AM EDT 7:52 PM EDT
Nautical Twilight 6:27 AM EDT 8:23 PM EDT
Astronomical Twilight 5:56 AM EDT 8:54 PM EDT
Moon 9:38 PM EDT 8:14 AM EDT
Length of Visible Light 12h 55m
Length of Day
12h 03m
Waning Gibbous, 96% of the Moon is Illuminated
Mar 18
Waning Gibbous
Mar 23
Last Quarter
Mar 30
New
Apr 7
First Quarter
Apr 15
Full

Hourly Weather History & Observations

Time (EDT) Temp. Windchill Dew Point Humidity Pressure Visibility Wind Dir Wind Speed Gust Speed Precip Events Conditions
12:36 AM 30.2 °F 18.9 °F 26.6 °F 86% 30.03 in 4.0 mi NE 16.1 mph 23.0 mph 0.00 in Rain Light Freezing Rain
12:54 AM 30.0 °F 20.5 °F 26.1 °F 85% 30.06 in 5.0 mi NE 11.5 mph - 0.00 in Rain Light Freezing Rain
1:54 AM 30.9 °F 21.2 °F 27.0 °F 85% 30.05 in 5.0 mi NNE 12.7 mph - 0.01 in Rain Light Freezing Rain
2:26 AM 30.2 °F 20.2 °F 26.6 °F 86% 30.03 in 2.5 mi NNE 12.7 mph - 0.02 in Snow Light Snow
2:37 AM 30.2 °F 22.6 °F 26.6 °F 86% 30.05 in 1.8 mi NNE 8.1 mph - 0.02 in Snow Light Snow
2:43 AM 30.2 °F 24.3 °F 26.6 °F 86% 30.06 in 3.0 mi North 5.8 mph - 0.02 in Snow Light Snow
2:54 AM 30.9 °F 25.2 °F 26.1 °F 82% 30.07 in 6.0 mi NNE 5.8 mph - 0.02 in Snow Light Snow
3:07 AM 30.2 °F 20.8 °F 26.6 °F 86% 30.04 in 9.0 mi NNE 11.5 mph - 0.00 in Rain Light Freezing Rain
3:27 AM 32.0 °F 23.6 °F 26.6 °F 80% 30.03 in 5.0 mi NNE 10.4 mph - 0.02 in Rain Light Freezing Rain
3:52 AM 30.2 °F 22.6 °F 26.6 °F 86% 30.01 in 4.0 mi NNE 8.1 mph - 0.02 in Snow Light Snow
3:54 AM 30.9 °F 23.5 °F 27.0 °F 85% 30.04 in 4.0 mi North 8.1 mph - 0.02 in Snow Light Snow
4:30 AM 30.2 °F 23.4 °F 26.6 °F 86% 30.01 in 10.0 mi NNE 6.9 mph - 0.00 in   Overcast
4:41 AM 30.2 °F 21.9 °F 26.6 °F 86% 30.01 in 10.0 mi NNE 9.2 mph - 0.00 in   Overcast
4:54 AM 30.9 °F 23.5 °F 27.0 °F 85% 30.03 in 10.0 mi NE 8.1 mph - 0.00 in   Overcast
5:05 AM 32.0 °F 24.8 °F 26.6 °F 80% 30.01 in 10.0 mi NNE 8.1 mph - N/A   Overcast
5:23 AM 32.0 °F 24.8 °F 26.6 °F 80% 30.02 in 10.0 mi NNE 8.1 mph - N/A   Overcast
5:54 AM 32.0 °F 23.6 °F 27.0 °F 82% 30.05 in 10.0 mi NE 10.4 mph - N/A   Overcast
6:54 AM 30.9 °F 20.7 °F 27.0 °F 85% 30.05 in 5.0 mi NNE 13.8 mph - N/A   Overcast
7:08 AM 30.2 °F 19.3 °F 26.6 °F 86% 30.03 in 2.0 mi NE 15.0 mph 21.9 mph 0.00 in   Light Freezing Drizzle
7:50 AM 30.2 °F 20.8 °F 26.6 °F 86% 30.05 in 3.0 mi NE 11.5 mph - 0.00 in   Light Freezing Drizzle
7:54 AM 30.9 °F 22.8 °F 27.0 °F 85% 30.08 in 3.0 mi NE 9.2 mph - 0.00 in   Light Freezing Drizzle
8:13 AM 30.2 °F 19.8 °F 26.6 °F 86% 30.06 in 2.5 mi NNE 13.8 mph - 0.00 in   Light Freezing Drizzle
8:54 AM 32.0 °F 21.2 °F 27.0 °F 82% 30.08 in 2.0 mi NNE 16.1 mph - 0.00 in   Light Freezing Drizzle
9:22 AM 32.0 °F 22.5 °F 28.4 °F 87% 30.07 in 3.0 mi NNE 12.7 mph 24.2 mph 0.00 in   Light Freezing Drizzle
9:54 AM 33.1 °F 23.9 °F 28.9 °F 85% 30.10 in 5.0 mi NNE 12.7 mph - 0.00 in   Light Freezing Drizzle
10:01 AM 33.8 °F 25.3 °F 28.4 °F 81% 30.09 in 7.0 mi NNE 11.5 mph 19.6 mph N/A   Overcast
10:54 AM 33.1 °F 23.9 °F 28.9 °F 85% 30.14 in 5.0 mi NE 12.7 mph - N/A   Overcast
11:54 AM 34.0 °F 25.0 °F 30.0 °F 85% 30.14 in 3.0 mi NNE 12.7 mph - N/A   Overcast
12:54 PM 36.0 °F 27.5 °F 30.0 °F 79% 30.16 in 10.0 mi NE 12.7 mph - N/A   Overcast
1:02 PM 35.6 °F 27.5 °F 30.2 °F 81% 30.14 in 10.0 mi NNE 11.5 mph - N/A   Overcast
1:54 PM 37.9 °F 30.5 °F 30.9 °F 76% 30.16 in 10.0 mi NNE 11.5 mph - N/A   Overcast
2:06 PM 39.2 °F 33.0 °F 30.2 °F 70% 30.14 in 10.0 mi North 9.2 mph - N/A   Overcast
2:54 PM 41.0 °F 35.2 °F 32.0 °F 70% 30.16 in 10.0 mi NNE 9.2 mph - N/A   Overcast
3:34 PM 41.0 °F 35.2 °F 32.0 °F 70% 30.14 in 10.0 mi NNE 9.2 mph - N/A   Overcast
3:54 PM 42.1 °F 37.1 °F 32.0 °F 67% 30.16 in 10.0 mi NNE 8.1 mph - N/A   Overcast
4:54 PM 42.1 °F 36.6 °F 32.0 °F 67% 30.15 in 10.0 mi NNE 9.2 mph - N/A   Overcast
5:54 PM 42.1 °F 35.2 °F 33.1 °F 70% 30.15 in 10.0 mi NE 12.7 mph - N/A   Overcast
6:54 PM 41.0 °F 34.3 °F 32.0 °F 70% 30.16 in 10.0 mi NE 11.5 mph - N/A   Overcast
7:54 PM 39.9 °F 33.9 °F 32.0 °F 73% 30.19 in 10.0 mi NE 9.2 mph - N/A   Overcast
8:54 PM 37.9 °F 32.7 °F 33.1 °F 83% 30.21 in 5.0 mi ENE 6.9 mph - 0.00 in Rain Light Rain
9:08 PM 37.4 °F 31.4 °F 33.8 °F 87% 30.19 in 4.0 mi NE 8.1 mph - 0.00 in Rain Light Rain
9:15 PM 37.4 °F 31.4 °F 33.8 °F 87% 30.19 in 5.0 mi NE 8.1 mph - 0.00 in   Haze
9:22 PM 37.4 °F 32.1 °F 33.8 °F 87% 30.20 in 6.0 mi NE 6.9 mph - 0.00 in   Haze
9:54 PM 37.9 °F 31.5 °F 33.1 °F 83% 30.22 in 10.0 mi NE 9.2 mph - 0.00 in   Overcast
10:26 PM 37.4 °F 30.8 °F 32.0 °F 81% 30.19 in 10.0 mi NNE 9.2 mph - N/A   Overcast
10:54 PM 37.0 °F 30.4 °F 32.0 °F 82% 30.21 in 10.0 mi NNE 9.2 mph - N/A   Overcast
11:54 PM 37.9 °F 32.1 °F 30.0 °F 73% 30.20 in 10.0 mi NNE 8.1 mph - N/A   Overcast